Regional Weather Roundup
Issued by NWS

Home | Current Version | Previous Version | Graphics & Text | Print | Product List | Glossary On
Versions: 1 2 3 4 5 6 7 8 9 10 11 12 13 14 15 16 17 18 19 20 21 22 23 24 25 26 27 28 29 30 31 32 33 34 35 36 37 38 39 40 41 42 43 44 45 46 47 48 49 50
000
ASUS43 KBIS 242210
RWRND

NORTH DAKOTA REGIONAL WEATHER ROUNDUP
NATIONAL WEATHER SERVICE BISMARCK ND
500 PM CDT FRI OCT 24 2014

NOTE: "FAIR" INDICATES FEW OR NO CLOUDS BELOW 12,000 FEET WITH NO
SIGNIFICANT WEATHER AND/OR OBSTRUCTIONS TO VISIBILITY.


NDZ001>003-009>011-017-242300-
NORTHWEST NORTH DAKOTA

CITY           SKY/WX    TMP DP  RH WIND       PRES   REMARKS
WILLISTON      PTSUNNY   61  26  26 W17G26    29.95R
MINOT          SUNNY     63  27  25 W26G32    29.87R
MINOT AFB      SUNNY     63  31  30 W20G32    29.86R
$$

NDZ018>021-031>035-040>046-242300-
SOUTHWEST NORTH DAKOTA

CITY           SKY/WX    TMP DP  RH WIND       PRES   REMARKS
BISMARCK       PTSUNNY   66  36  32 NW16G23   29.94R
DICKINSON      PTSUNNY   58  31  35 W14       29.98R
GARRISON         N/A     63  30  28 W17G23    29.91R
HETTINGER ARPT PTSUNNY   62  29  28 NW20      30.02R
$$

NDZ004>008-012>016-024-026-027-054-242300-
NORTHEAST NORTH DAKOTA

CITY           SKY/WX    TMP DP  RH WIND       PRES   REMARKS
GRAND FORKS    MOSUNNY   70  33  25 W24G33    29.76R
GRND FRKS AFB  SUNNY     69  32  25 W21G37    29.78R
DEVILS LAKE    SUNNY     64  30  27 W24G30    29.79R
$$

NDZ022-023-025-028>030-036>039-047>053-242300-
SOUTHEAST NORTH DAKOTA

CITY           SKY/WX    TMP DP  RH WIND       PRES   REMARKS
FARGO          MOSUNNY   75  41  29 W17       29.78R
JAMESTOWN      MOSUNNY   67  35  30 NW20G31   29.86R
$$




USA.gov is the U.S. government's official web portal to all federal, state and local government web resources and services.